[[{"header":{"parameterUnit":"m.s-1","parameterCategory":1,"la1":30.2991,"la2":30.254,"lo1":-89.0895,"lo2":-89.0444,"dy":0.0017,"dx":0.0017,"nx":28,"ny":28,"refTime":"2023-11-15T03:00:00:Z","depth":0,"parameterNumber":2,"parameterNumberName":"U-component_of_WINDS"},"data":[0,0,0,0,0,0,0,0,0,0,0,0,0,0,0,0,0,0,0,0,0,0,0,0,0,0,0,0,0,0,0,0,0,0,0,0,0,0,0,0,0,0,0,0,0,0,0,0,0,0,0,0,0,0,0,0,0,0,-4.0881,-4.0884,0,-4.1142,-4.1145,-4.1147,-4.114,-4.1136,-4.1133,-4.1129,-4.1403,-4.1413,-4.1424,0,0,0,0,0,0,0,0,0,0,0,0,0,-4.0383,-4.0392,-4.0881,-4.0884,-4.0887,-4.1141,-4.1145,-4.1148,-4.1141,-4.1136,-4.1132,-4.1128,-4.1399,-4.1412,-4.1425,0,0,0,0,0,0,0,0,0,0,0,0,0,-4.0617,-4.0395,-4.088,-4.0914,-4.0919,-4.114,-4.1145,-4.1149,-4.1142,-4.1136,-4.1131,-4.1126,-4.1395,-4.1411,-4.1426,-4.1633,0,0,-4.1475,-4.1482,0,0,0,0,0,0,0,0,-4.0604,-4.0635,-4.0906,-4.0912,-4.0919,-4.1103,-4.1069,-4.1312,-4.1143,-4.1057,-4.1129,-4.1123,-4.1308,-4.1331,-4.1392,-4.1646,-4.1657,-4.1477,-4.1486,-4.1493,-4.1498,0,0,0,0,0,0,0,-4.0588,-4.0624,-4.0984,-4.091,-4.0918,-4.0918,-4.0945,-4.1115,-4.121,-4.1064,-4.1064,-4.1095,-4.131,-4.1376,-4.1398,-4.1661,-4.1476,-4.149,-4.15,-4.1506,-4.2101,-4.2107,0,0,0,0,0,0,-4.0563,-4.0611,-4.0976,-4.0992,-4.0744,-4.0931,-4.0962,-4.1049,-4.1208,-4.1227,-4.1099,-4.1094,-4.1352,-4.1379,-4.1407,-4.1662,-4.1493,-4.1508,-4.1517,-4.2095,-4.2102,-4.2109,0,0,0,0,0,0,-4.0553,-4.0596,-4.0965,-4.0801,-4.0848,-4.0946,-4.1044,-4.1057,-4.1123,-4.1234,-4.1252,-4.1149,-4.1348,-4.1385,-4.1577,-4.1671,-4.1515,-4.153,-4.2088,-4.2097,-4.2106,-4.217,0,0,0,0,0,0,-4.0538,-4.0592,-4.067,-4.0803,-4.0857,-4.1129,-4.1049,-4.1066,-4.115,-4.1145,-4.1285,-4.1304,-4.1347,-4.1553,-4.1593,-4.169,-4.1542,-4.208,-4.2092,-4.2103,-4.216,-4.2181,-4.2198,0,0,0,0,0,-4.0521,-4.0679,-4.0674,-4.0718,-4.0956,-4.1134,-4.1165,-4.121,-4.1157,-4.1238,-4.1309,-4.1299,-4.1654,-4.1573,-4.1618,-4.1721,-4.2074,-4.2088,-4.2102,-4.2152,-4.2177,-4.2198,0,0,0,0,0,0,-4.0556,-4.0697,-4.0693,-4.0898,-4.1004,-4.1132,-4.1235,-4.1235,-4.1359,-4.135,-4.1402,-4.1434,-4.1626,-4.1693,-4.16,-4.1931,-4.1858,-4.1881,-4.188,-4.1905,-4.1923,-4.1905,-4.1555,0,0,0,0,0,-4.0587,-4.0718,-4.0834,-4.1005,-4.1058,-4.1137,-4.1216,-4.1241,-4.1354,-4.1399,-4.1485,-4.1597,-4.1733,-4.1822,-4.1954,-4.2169,-4.2202,-4.2263,-4.2281,-4.2296,-4.2317,-4.2438,-4.2468,-4.2155,-4.2155,-4.2155,0,0,-4.0654,-4.0747,-4.0827,-4.1014,-4.1099,-4.1236,-4.1175,-4.1321,-4.1424,-4.1422,-4.1609,-4.1676,-4.1804,-4.2009,-4.2103,-4.207,-4.241,-4.2314,-4.2325,-4.2338,-4.2456,-4.2485,-4.2512,-4.2165,-4.2163,-4.2161,0,0,-4.0846,-4.0928,-4.108,-4.1166,-4.1295,-4.1347,-4.1383,-4.1512,-4.1556,-4.1743,-4.1745,-4.1869,-4.2102,-4.2194,-4.2272,-4.2499,-4.2495,-4.254,-4.264,-4.2758,-4.2783,-4.2805,-4.2889,-4.2918,-4.256,-4.256,-4.256,0,-4.0914,-4.1117,-4.1159,-4.1306,-4.139,-4.1392,-4.1548,-4.163,-4.1796,-4.1855,-4.1814,-4.2109,-4.2195,-4.2422,-4.2478,-4.2539,-4.2585,-4.2526,-4.2775,-4.2798,-4.2819,-4.29,-4.2931,-4.2565,-4.2564,-4.2564,-4.2564,0,-4.1195,-4.1337,-4.1444,-4.1603,-4.1698,-4.1849,-4.1915,-4.2008,-4.2024,-4.2081,-4.2274,-4.2377,-4.2531,-4.2586,-4.2605,-4.2818,-4.2793,-4.2763,-4.2692,-4.2853,-4.293,-4.2961,-4.2572,-4.257,-4.2569,-4.2568,0,0,-4.1418,-4.1597,-4.1636,-4.1709,-4.1851,-4.1963,-4.2114,-4.2263,-4.2342,-4.2456,-4.2587,-4.2785,-4.2759,-4.2846,-4.2875,-4.2978,-4.3155,-4.2936,-4.294,-4.2976,-4.3399,-4.3422,-4.3457,-4.3152,-4.3158,-4.3163,-4.3389,0,-4.1627,-4.1894,-4.1936,-4.2173,-4.2305,-4.231,-4.2443,-4.2546,-4.2603,-4.2726,-4.279,-4.293,-4.2883,-4.2937,-4.3038,-4.3111,-4.3241,-4.3096,-4.3278,-4.3284,-4.3248,-4.3497,-4.3521,-4.373,-4.3419,-4.3424,-4.3428,0,-4.1906,-4.2026,-4.2275,-4.2401,-4.2458,-4.2577,-4.2717,-4.2833,-4.2951,-4.2986,-4.3084,-4.3101,-4.3261,-4.318,-4.3404,-4.3304,-4.3381,-4.3429,-4.3438,-4.3459,-4.3367,-4.3527,-4.3797,-4.3829,-4.3475,-4.3471,-4.3468,0,-4.2046,-4.2271,-4.2449,-4.2511,-4.2661,-4.2745,-4.2812,-4.2924,-4.3011,-4.3134,-4.3192,-4.3333,-4.3411,-4.3521,-4.3576,-4.3512,-4.3798,-4.3721,-4.3834,-4.3833,-4.3896,-4.3892,-4.4185,-4.3941,-4.3941,-4.394,-4.3939,0,-4.2276,-4.2429,-4.2515,-4.2625,-4.2797,-4.2845,-4.3015,-4.308,-4.318,-4.3305,-4.3317,-4.3435,-4.35,-4.3628,-4.3672,-4.3852,-4.3887,-4.3922,-4.3932,-4.3922,-4.3918,-4.3975,-4.3963,-4.3948,-4.3946,-4.3945,-4.3943,0,-4.2463,-4.2526,-4.2722,-4.2847,-4.2883,-4.3004,-4.3113,-4.3222,-4.3278,-4.3436,-4.3476,-4.3566,-4.3717,-4.3783,-4.3969,-4.4,-4.4207,-4.4205,-4.4166,-4.4171,-4.4281,-4.4271,-4.4623,-4.4673,-4.4394,-4.4396,-4.4398,0,-4.2607,-4.2725,-4.2863,-4.2946,-4.3015,-4.315,-4.3238,-4.329,-4.3382,-4.3526,-4.3618,-4.3769,-4.3893,-4.4135,-4.4218,-4.4362,-4.4366,-4.4479,-4.4388,-4.4374,-4.4371,-4.4364,-4.4378,-4.4497,-4.45,-4.4502,-4.4504,0,-4.2856,-4.2882,-4.3007,-4.3146,-4.325,-4.3362,-4.3471,-4.3539,-4.3609,-4.3712,-4.3866,-4.3962,-4.4152,-4.4303,-4.4451,-4.4523,-4.4527,-4.4532,-4.4566,-4.4558,-4.4532,-4.455,-4.4215,-4.4524,-4.4522,-4.452,-4.4519,-4.4519,-4.3028,-4.3133,-4.3247,-4.3388,-4.3475,-4.3577,-4.3686,-4.3755,-4.3884,-4.4041,-4.4064,-4.4229,-4.4347,-4.4546,-4.4624,-4.4755,-4.4728,-4.4777,-4.479,-4.4802,-4.481,-4.4508,-4.4782,-4.4782,-4.4781,-4.4781,-4.4781,0,-4.328,-4.3353,-4.3482,-4.3634,-4.3745,-4.3735,-4.3856,-4.3951,-4.4095,-4.4203,-4.4324,-4.4502,-4.4649,-4.4743,-4.4892,-4.498,-4.4986,-4.5018,-4.5013,-4.503,-4.4825,-4.4781,-4.5011,-4.5011,-4.5011,-4.501,-4.501,-4.501,-4.3424,-4.3603,-4.3642,-4.3865,-4.3938,-4.4098,-4.4168,-4.4264,-4.435,-4.4547,-4.4669,-4.4728,-4.4832,-4.4989,-4.5124,-4.5148,-4.5204,-4.5238,-4.5261,-4.5068,-4.5044,-4.5022,-4.4981,-4.5249,-4.5249,-4.5457,-4.5458,-4.546]},{"header":{"parameterUnit":"m.s-1","parameterCategory":1,"la1":30.2991,"la2":30.254,"lo1":-89.0895,"lo2":-89.0444,"dy":0.0017,"dx":0.0017,"nx":28,"ny":28,"refTime":"2023-11-15T03:00:00:Z","depth":0,"parameterNumber":3,"parameterNumberName":"V-component_of_WINDS"},"data":[0,0,0,0,0,0,0,0,0,0,0,0,0,0,0,0,0,0,0,0,0,0,0,0,0,0,0,0,0,0,0,0,0,0,0,0,0,0,0,0,0,0,0,0,0,0,0,0,0,0,0,0,0,0,0,0,0,0,-4.6117,-4.6116,0,-4.6052,-4.6052,-4.6051,-4.5932,-4.5929,-4.5927,-4.5925,-4.5862,-4.5862,-4.5862,0,0,0,0,0,0,0,0,0,0,0,0,0,-4.614,-4.614,-4.6117,-4.6116,-4.6115,-4.6053,-4.6052,-4.6051,-4.5932,-4.5929,-4.5926,-4.5924,-4.5861,-4.5862,-4.5863,0,0,0,0,0,0,0,0,0,0,0,0,0,-4.6108,-4.614,-4.6117,-4.6048,-4.6042,-4.6053,-4.6052,-4.6051,-4.5933,-4.5929,-4.5926,-4.5922,-4.5861,-4.5862,-4.5863,-4.5936,0,0,-4.5865,-4.5865,0,0,0,0,0,0,0,0,-4.611,-4.6107,-4.6059,-4.6053,-4.6046,-4.5996,-4.6036,-4.6012,-4.5934,-4.5974,-4.5925,-4.5921,-4.5909,-4.5906,-4.5902,-4.5933,-4.5931,-4.5865,-4.5865,-4.5866,-4.5866,0,0,0,0,0,0,0,-4.6112,-4.611,-4.6091,-4.6059,-4.605,-4.6022,-4.6013,-4.6031,-4.5962,-4.597,-4.5962,-4.5955,-4.5905,-4.5901,-4.5899,-4.593,-4.5865,-4.5865,-4.5866,-4.5866,-4.6018,-4.6021,0,0,0,0,0,0,-4.6124,-4.6112,-4.6094,-4.609,-4.607,-4.6024,-4.6015,-4.6016,-4.5962,-4.595,-4.5958,-4.595,-4.5902,-4.5899,-4.5897,-4.5979,-4.5866,-4.5866,-4.5867,-4.6014,-4.6019,-4.6023,0,0,0,0,0,0,-4.6125,-4.6124,-4.6096,-4.6098,-4.6093,-4.6027,-4.603,-4.6016,-4.6012,-4.5952,-4.594,-4.5967,-4.5899,-4.5896,-4.5927,-4.5975,-4.5866,-4.5867,-4.601,-4.6016,-4.6021,-4.6144,0,0,0,0,0,0,-4.6126,-4.6125,-4.6152,-4.61,-4.6093,-4.6127,-4.6032,-4.6018,-4.6013,-4.6002,-4.5957,-4.5946,-4.5896,-4.5927,-4.5928,-4.5974,-4.5868,-4.6005,-4.6013,-4.6019,-4.6136,-4.6153,-4.6168,0,0,0,0,0,-4.6128,-4.619,-4.6154,-4.6152,-4.6125,-4.613,-4.6126,-4.6066,-4.6018,-4.6045,-4.6006,-4.5948,-4.5969,-4.5931,-4.5931,-4.5978,-4.6002,-4.6011,-4.6018,-4.6128,-4.615,-4.6168,0,0,0,0,0,0,-4.625,-4.6182,-4.6141,-4.6188,-4.6166,-4.611,-4.6142,-4.6091,-4.6083,-4.6073,-4.5999,-4.599,-4.6031,-4.6007,-4.5966,-4.6046,-4.5977,-4.5985,-4.606,-4.608,-4.6096,-4.6101,-4.5868,0,0,0,0,0,-4.6282,-4.6291,-4.6232,-4.6279,-4.627,-4.6208,-4.6208,-4.6164,-4.6138,-4.6128,-4.6092,-4.607,-4.6072,-4.6074,-4.6073,-4.6132,-4.612,-4.6164,-4.6181,-4.6194,-4.6203,-4.6232,-4.6251,-4.6049,-4.6049,-4.6049,0,0,-4.6349,-4.6313,-4.6324,-4.6303,-4.628,-4.6292,-4.6201,-4.6218,-4.6226,-4.6131,-4.6158,-4.6131,-4.6102,-4.6147,-4.6165,-4.6129,-4.6256,-4.6205,-4.6216,-4.6217,-4.6242,-4.6261,-4.6278,-4.6055,-4.6054,-4.6053,0,0,-4.6477,-4.6451,-4.6487,-4.6466,-4.6433,-4.6392,-4.6401,-4.6353,-4.6331,-4.6357,-4.6286,-4.6295,-4.6299,-4.6281,-4.6272,-4.6394,-4.634,-4.6395,-4.6481,-4.651,-4.6526,-4.654,-4.6583,-4.6599,-4.6404,-4.6404,-4.6404,0,-4.6565,-4.6579,-4.6513,-4.6533,-4.6526,-4.644,-4.6477,-4.646,-4.6429,-4.6426,-4.6385,-4.6389,-4.6363,-4.6403,-4.6432,-4.6428,-4.6436,-4.64,-4.6529,-4.6542,-4.6554,-4.6594,-4.6611,-4.6411,-4.641,-4.6409,-4.6409,0,-4.6689,-4.67,-4.6734,-4.6704,-4.6701,-4.673,-4.6668,-4.6673,-4.6629,-4.6592,-4.6619,-4.6585,-4.6575,-4.6581,-4.6538,-4.6615,-4.6593,-4.6542,-4.6471,-4.6581,-4.6618,-4.6633,-4.6421,-4.6418,-4.6416,-4.6415,0,0,-4.6893,-4.6826,-4.6839,-4.6825,-4.6782,-4.6789,-4.6814,-4.6803,-4.6809,-4.679,-4.6809,-4.6815,-4.6767,-4.6757,-4.6712,-4.6738,-4.6836,-4.6683,-4.6681,-4.6713,-4.6918,-4.6957,-4.6976,-4.68,-4.6802,-4.6804,-4.692,0,-4.7012,-4.705,-4.699,-4.7042,-4.7052,-4.697,-4.6992,-4.6968,-4.6934,-4.6938,-4.6901,-4.6906,-4.6842,-4.6836,-4.6857,-4.6819,-4.6876,-4.681,-4.6817,-4.6819,-4.6828,-4.6995,-4.7037,-4.7148,-4.6934,-4.6937,-4.6938,0,-4.7156,-4.7143,-4.7196,-4.7149,-4.7151,-4.7171,-4.7156,-4.7161,-4.7132,-4.7106,-4.7095,-4.7041,-4.7062,-4.6993,-4.7022,-4.6979,-4.6978,-4.696,-4.6963,-4.6961,-4.6886,-4.6999,-4.7182,-4.7199,-4.696,-4.6959,-4.6957,0,-4.7299,-4.7295,-4.7326,-4.7316,-4.7263,-4.7279,-4.7258,-4.7226,-4.7223,-4.721,-4.7207,-4.7198,-4.7193,-4.7187,-4.7131,-4.7086,-4.7167,-4.7093,-4.7146,-4.7148,-4.7167,-4.7167,-4.7354,-4.7167,-4.7167,-4.7167,-4.7166,0,-4.7438,-4.7474,-4.739,-4.7409,-4.7447,-4.7378,-4.7417,-4.7388,-4.736,-4.7372,-4.7301,-4.7314,-4.724,-4.7246,-4.7203,-4.7233,-4.7231,-4.7211,-4.7199,-4.7218,-4.722,-4.7217,-4.7208,-4.7171,-4.717,-4.7169,-4.7168,0,-4.7605,-4.755,-4.7578,-4.7525,-4.7512,-4.7543,-4.7497,-4.7513,-4.7474,-4.7491,-4.7491,-4.7431,-4.7433,-4.7377,-4.7369,-4.734,-4.739,-4.7364,-4.7399,-4.7391,-4.7447,-4.7443,-4.7638,-4.766,-4.746,-4.7462,-4.7464,0,-4.7698,-4.7723,-4.7672,-4.7675,-4.7657,-4.7662,-4.7658,-4.7592,-4.7592,-4.7561,-4.7581,-4.7577,-4.7571,-4.7579,-4.7535,-4.7528,-4.7502,-4.757,-4.75,-4.7518,-4.7503,-4.7502,-4.7505,-4.7586,-4.7588,-4.759,-4.7592,0,-4.7868,-4.7839,-4.7836,-4.7825,-4.7822,-4.781,-4.7792,-4.7799,-4.7726,-4.773,-4.7731,-4.7726,-4.7717,-4.7715,-4.7699,-4.7677,-4.7623,-4.7614,-4.7626,-4.7645,-4.7665,-4.7655,-4.744,-4.761,-4.7608,-4.7607,-4.7606,-4.7605,-4.8,-4.8019,-4.7986,-4.7985,-4.7965,-4.7951,-4.7963,-4.7926,-4.7925,-4.7912,-4.7873,-4.7881,-4.7852,-4.7826,-4.7809,-4.7814,-4.778,-4.7798,-4.7802,-4.7808,-4.7818,-4.7664,-4.7811,-4.7811,-4.781,-4.781,-4.7809,0,-4.8167,-4.8142,-4.8142,-4.8119,-4.8119,-4.8067,-4.8045,-4.8049,-4.8056,-4.8033,-4.8028,-4.803,-4.8027,-4.7983,-4.7975,-4.7988,-4.7963,-4.7988,-4.7986,-4.7982,-4.7849,-4.784,-4.8008,-4.8008,-4.8008,-4.8008,-4.8008,-4.8008,-4.8254,-4.8283,-4.825,-4.8269,-4.8243,-4.825,-4.8242,-4.8228,-4.8209,-4.8214,-4.8211,-4.8182,-4.815,-4.8139,-4.8134,-4.8121,-4.8122,-4.8156,-4.8135,-4.8011,-4.7992,-4.7973,-4.7964,-4.8156,-4.8156,-4.8267,-4.8268,-4.8269]}]]